Vorticity
nan nan nan nan nan nan nan nan nan nan nan nan nan nan nan nan nan nan nan nan nan nan nan nan nan nan nan nan nan nan nan nan nan nan nan nan nan nan nan nan nan nan nan nan nan nan nan nan nan nan nan nan nan nan nan nan nan nan nan nan nan nan nan nan nan nan nan nan nan nan nan nan nan nan nan nan nan nan nan nan nan nan nan nan nan nan nan nan nan nan nan nan nan nan nan nan nan nan nan nan nan nan nan
nan 5 4 4 4 4 5 5 4 4 4 4 4 4 5 6 6 5 5 5 5 5 5 5 5 4 4 5 5 5 6 6 5 5 4 4 4 5 5 6 7 8 10 14 16 17 17 15 12 10 8 6 5 5 5 5 5 6 6 7 6 5 5 8 8 7 7 10 11 12 10 9 10 10 9 9 10 11 11 15 17 17 15 12 9 10 12 14 14 12 10 8 6 6 6 6 7 9 8 8 9 10 nan
nan 4 3 4 4 5 5 5 4 4 4 4 4 5 5 5 5 5 4 5 5 5 5 5 4 4 4 5 5 6 6 5 5 4 4 4 5 6 6 6 7 9 11 14 15 15 11 10 10 8 5 5 5 6 6 6 6 7 7 7 6 5 5 7 8 8 9 12 13 13 8 7 8 8 7 7 7 6 7 13 14 14 13 10 9 10 13 14 12 10 11 13 10 8 5 4 6 6 8 10 10 11 nan
nan 3 3 3 4 5 5 5 5 5 5 5 5 5 5 5 5 5 4 4 5 5 5 5 5 5 5 5 5 5 5 5 5 4 4 5 5 6 7 7 8 9 11 13 13 11 6 6 6 6 4 5 5 6 6 7 7 8 8 7 6 7 10 11 10 9 11 12 12 11 8 7 7 8 7 7 6 5 4 6 7 8 9 8 9 11 13 12 10 7 8 11 10 8 6 6 7 8 8 10 10 10 nan
nan 2 3 3 4 5 5 5 5 5 6 6 6 5 5 5 5 4 4 4 5 5 5 4 4 4 5 5 5 5 4 4 4 4 5 5 6 6 7 7 8 9 11 11 10 10 9 6 5 4 5 5 5 5 6 7 8 8 8 7 7 8 14 14 12 9 10 10 10 10 9 10 9 9 10 9 8 8 6 4 4 6 8 8 9 9 8 7 5 6 9 9 9 8 8 8 8 8 9 9 9 8 nan
nan 3 3 3 4 4 5 5 5 6 6 6 6 5 5 5 4 4 4 4 5 5 5 4 4 4 4 4 4 4 4 5 5 5 5 6 6 7 7 7 8 9 10 10 9 9 9 7 6 5 5 5 6 6 6 7 8 8 7 6 7 9 11 11 10 9 9 9 9 10 10 11 10 9 10 11 11 12 9 5 5 6 7 7 7 7 6 5 4 5 7 8 8 7 8 9 9 9 9 8 8 8 nan
nan 3 3 3 3 4 4 5 5 6 6 6 5 5 5 5 5 5 5 5 5 5 4 4 4 4 4 4 4 4 5 5 5 5 6 6 6 7 7 8 9 9 9 8 7 7 8 7 7 6 5 5 5 6 6 6 7 7 6 5 5 8 10 9 8 7 7 8 8 8 8 8 8 8 8 8 9 11 12 10 9 9 10 9 8 7 6 7 7 8 8 8 8 8 7 8 9 10 10 9 9 8 nan
nan 3 3 3 3 4 4 5 5 5 5 5 5 5 5 5 5 5 6 6 6 5 4 4 3 4 4 4 5 5 5 5 5 5 5 6 6 7 8 9 10 10 10 8 6 6 7 7 6 5 5 5 5 6 6 6 6 6 6 4 4 6 8 8 8 7 7 8 7 7 7 7 7 7 7 7 8 8 9 9 10 10 11 11 10 9 9 11 12 12 13 12 10 9 7 8 9 10 10 9 9 9 nan
nan 4 4 4 4 4 5 5 5 5 5 5 5 5 5 5 5 6 6 6 6 5 4 4 4 4 4 5 5 5 5 5 5 5 5 6 7 9 10 11 12 12 10 7 5 4 5 6 5 5 5 6 6 6 7 6 6 6 6 5 6 8 9 9 8 8 8 8 7 7 6 6 7 7 7 7 7 7 8 9 9 10 11 11 12 11 12 14 14 13 13 12 10 10 9 10 10 9 7 8 8 8 nan
nan 4 4 5 5 6 6 6 6 5 5 5 5 5 5 5 5 6 6 6 5 5 4 4 5 5 5 5 5 5 5 5 5 5 6 7 9 11 13 14 14 13 10 6 3 2 4 6 5 6 6 6 6 6 7 7 6 6 6 7 8 10 10 9 9 10 9 8 8 7 7 6 6 7 7 8 8 8 9 9 10 10 10 11 11 11 12 13 12 10 9 9 8 8 9 9 8 8 7 7 8 8 nan
nan 5 5 5 6 7 7 7 7 6 6 6 5 5 5 5 5 5 6 5 5 5 5 5 5 5 5 5 5 5 5 5 5 5 7 9 12 14 16 16 15 13 9 5 2 1 3 6 6 7 7 6 6 6 6 7 6 7 5 8 8 9 10 10 10 10 9 8 7 7 7 6 6 7 7 7 8 8 9 9 10 10 10 10 9 8 8 7 6 5 5 6 6 7 8 8 7 7 6 6 7 7 nan
nan 5 5 5 6 7 8 8 7 6 6 5 5 5 4 5 5 5 5 5 5 6 6 6 6 6 5 5 5 5 5 5 6 7 9 12 14 16 17 16 14 11 6 3 1 -1 -0 4 6 7 7 6 6 7 7 7 7 8 5 7 9 9 10 11 10 9 8 7 7 6 6 6 6 6 7 7 7 7 8 8 8 8 8 8 7 6 5 4 4 4 4 4 5 5 6 7 7 7 7 6 7 7 nan
nan 4 3 4 6 6 7 7 6 6 5 4 4 4 4 4 4 5 5 6 6 6 6 6 6 6 6 6 6 6 6 6 7 9 11 14 16 17 16 14 11 7 3 -0 -2 -4 0 5 6 7 8 7 7 7 8 8 8 9 8 6 10 11 11 11 11 9 8 7 6 6 6 6 7 7 7 8 8 8 7 7 7 7 6 6 6 5 5 4 5 5 5 5 5 6 5 6 6 7 7 7 7 7 nan
nan 1 2 5 6 5 5 6 5 5 4 3 3 4 5 5 5 5 6 6 7 7 7 6 6 5 5 6 6 6 6 7 8 10 13 15 16 15 13 10 6 3 1 -3 -4 -1 4 6 6 7 8 8 7 6 8 9 8 9 12 8 9 11 12 12 11 10 8 7 6 6 6 7 8 8 9 9 9 9 9 7 7 6 6 5 5 6 6 6 6 7 7 7 7 7 6 6 6 7 7 7 7 7 nan
nan 2 4 7 6 5 5 5 5 4 3 2 2 4 6 7 7 6 6 7 7 7 7 6 6 5 5 6 6 6 5 6 8 11 14 15 15 13 10 6 3 0 -2 -4 -0 4 6 7 7 7 8 8 7 6 7 8 9 10 12 9 9 10 11 12 11 10 8 8 7 6 6 7 8 9 10 11 12 12 11 9 8 7 6 6 6 6 6 7 7 8 9 9 8 7 6 6 6 6 6 6 6 6 nan
nan 5 5 6 6 5 5 5 5 4 3 2 2 4 7 8 8 7 6 7 7 7 7 6 5 5 5 5 6 5 2 3 6 9 13 14 13 11 7 4 1 -2 -4 0 4 6 7 7 7 7 7 8 8 7 7 8 10 10 9 9 8 9 10 11 10 10 9 9 8 8 7 7 8 9 10 11 12 13 12 11 10 9 8 7 6 6 6 6 6 7 8 9 8 7 6 5 5 5 5 5 5 5 nan
nan 6 5 5 5 5 6 6 5 5 4 2 3 4 6 7 8 7 7 7 7 7 7 6 5 4 5 5 6 6 2 1 2 4 8 11 10 8 5 1 -1 -2 -0 5 6 6 6 7 7 6 6 7 7 7 8 9 10 10 8 9 8 8 8 9 9 9 9 9 9 9 8 8 8 7 8 8 9 10 10 10 9 9 8 7 7 6 5 4 4 4 5 6 6 6 6 5 5 5 5 4 4 4 nan
nan 6 5 4 5 5 6 6 6 5 5 4 3 4 5 6 7 8 8 8 8 7 7 6 5 4 4 6 6 6 6 4 3 2 2 4 4 4 2 -1 -2 0 5 6 7 7 7 7 7 6 5 6 6 6 8 10 10 10 9 9 8 8 7 7 8 8 8 9 9 9 9 8 7 6 5 5 5 6 7 8 7 7 7 7 7 6 5 4 3 3 3 4 4 5 5 5 5 5 5 5 5 5 nan
nan 7 5 4 4 5 5 6 6 6 5 5 5 5 5 6 7 8 9 9 8 7 6 5 4 3 3 5 6 7 8 8 7 5 3 1 -0 1 0 -1 1 3 6 6 7 8 8 7 7 6 5 5 6 6 8 10 9 9 9 9 8 8 7 7 7 7 7 8 8 8 8 7 6 5 4 3 3 3 4 5 5 5 5 6 6 5 5 4 4 3 3 3 4 4 4 4 4 5 5 5 5 5 nan
nan 8 6 5 5 5 5 6 6 6 6 5 6 8 8 8 8 9 10 9 8 7 6 4 2 1 3 5 6 7 8 8 8 8 6 4 3 2 3 4 5 6 6 6 7 7 7 7 6 6 6 5 5 6 8 9 8 9 10 9 9 8 8 7 7 7 7 6 6 6 6 6 5 5 4 3 2 3 3 4 4 4 4 4 4 5 5 5 5 4 4 4 4 4 4 4 4 4 5 5 5 5 nan
nan 8 9 8 8 7 6 7 8 8 8 6 5 8 10 9 9 10 10 7 5 5 4 3 2 2 3 5 6 7 7 7 7 8 7 7 7 7 7 7 7 6 6 6 6 6 6 6 6 6 6 6 6 6 7 10 9 9 10 9 9 8 7 7 7 7 6 6 5 4 4 5 5 5 4 3 3 3 3 4 4 4 4 3 3 4 5 5 5 5 5 4 5 5 5 5 4 5 5 5 5 6 nan
nan 7 8 9 9 8 8 8 9 9 10 9 5 5 7 7 6 6 5 5 4 3 2 2 4 5 5 6 6 6 6 7 7 7 7 8 8 8 8 8 7 7 6 7 7 7 7 6 6 6 6 6 6 6 6 9 9 9 10 10 9 8 7 7 7 6 6 6 5 5 4 4 4 4 4 4 4 3 3 3 4 4 4 3 3 4 4 4 4 5 5 5 5 5 5 5 5 5 5 5 5 6 nan
nan 7 7 7 8 8 8 8 8 8 10 10 7 5 5 6 5 4 3 5 5 4 4 5 6 7 7 7 6 5 7 8 9 8 7 8 8 8 8 8 7 7 7 7 7 7 7 7 7 6 6 6 6 6 6 6 8 10 11 10 10 9 8 7 7 6 6 6 6 5 5 4 4 4 4 4 4 4 4 4 4 4 5 4 4 4 4 4 4 5 5 5 5 6 6 6 6 6 6 6 6 6 nan
nan 7 6 7 7 7 7 7 7 7 7 8 7 5 5 6 6 6 5 6 6 6 6 7 7 7 8 8 7 7 7 9 10 10 8 7 8 8 8 8 8 7 7 7 7 7 7 7 7 6 6 6 6 6 5 5 7 9 10 11 11 10 9 8 7 6 6 6 6 5 5 5 5 4 4 4 5 5 4 4 4 5 5 5 5 5 5 5 5 5 5 6 6 6 6 6 6 6 6 6 6 7 nan
nan 7 6 7 7 7 7 7 7 6 7 7 7 6 6 6 7 7 7 7 7 7 7 7 7 7 8 8 7 8 8 8 9 10 10 9 9 9 8 9 8 8 7 7 7 7 7 7 6 6 6 6 7 6 5 6 7 8 9 11 11 11 10 8 7 6 6 5 5 5 6 5 5 5 5 5 5 5 5 5 5 6 6 6 6 6 6 6 6 6 6 6 6 7 7 7 7 7 7 7 7 7 nan
nan 6 6 7 7 7 8 7 7 7 7 7 8 7 6 6 7 7 8 8 8 8 8 7 7 7 7 7 7 7 7 8 8 8 10 10 9 8 8 8 8 8 8 7 7 6 6 6 6 6 6 6 7 6 5 7 7 7 8 10 11 11 11 10 8 7 6 6 6 6 6 6 6 6 6 6 6 6 6 6 6 6 7 7 7 7 7 8 7 7 7 7 7 7 7 8 8 8 8 8 7 7 nan
nan 6 7 7 8 8 8 8 7 7 7 7 7 8 6 6 7 8 8 8 8 8 7 6 6 6 6 6 5 6 6 7 7 7 8 9 8 7 7 7 7 7 7 7 7 6 6 6 6 6 6 7 7 7 5 4 5 6 7 9 10 11 11 11 10 9 8 7 6 6 6 6 7 7 7 7 7 7 7 7 7 7 8 8 8 8 8 8 8 8 8 8 8 8 8 8 8 8 8 8 8 7 nan
nan 6 7 7 7 8 8 7 7 7 7 6 7 8 7 6 7 7 8 8 8 7 6 5 6 6 6 6 5 5 5 6 6 7 7 8 8 8 7 6 6 7 7 7 7 7 6 6 6 7 7 8 8 8 7 1 2 6 8 8 9 10 11 11 11 10 9 8 7 7 7 7 7 7 8 8 8 8 8 8 8 8 8 8 8 8 8 8 8 8 8 8 8 8 8 8 8 8 8 8 8 7 nan
nan 6 7 8 7 8 7 8 8 7 7 6 6 7 7 7 7 7 8 8 8 7 6 6 6 7 8 7 6 6 6 5 4 6 8 9 8 9 9 7 7 6 7 7 6 6 6 6 7 7 7 8 8 8 8 3 3 6 8 8 9 9 10 10 10 10 10 9 8 8 8 8 8 8 8 8 8 9 8 8 8 8 8 8 8 8 8 8 8 8 8 8 8 8 8 8 8 8 8 8 8 7 nan
nan 7 7 8 8 7 8 8 8 7 7 7 6 6 6 8 8 7 7 7 8 7 7 7 7 8 8 8 7 7 7 6 4 3 6 8 9 10 10 9 7 7 7 6 6 6 6 6 6 7 7 6 7 8 8 5 3 5 8 8 8 8 8 8 9 9 9 9 8 8 8 8 8 8 8 8 8 8 8 8 8 8 8 8 8 8 8 8 8 8 8 7 7 8 8 8 8 8 8 8 8 7 nan
nan 7 7 7 7 7 8 8 8 7 7 7 7 7 7 8 9 9 8 7 6 6 6 6 7 7 7 7 7 7 7 7 6 4 3 5 7 9 10 10 8 7 6 6 6 7 6 7 7 7 6 7 7 7 7 6 3 2 5 6 7 7 7 7 7 7 8 8 8 8 8 8 8 8 8 9 9 8 8 8 8 8 8 8 8 8 8 8 8 8 7 7 7 8 8 8 8 8 8 8 8 8 nan
nan 7 7 7 7 7 8 8 7 7 7 8 8 8 9 10 10 9 9 8 7 6 6 6 6 7 7 7 7 7 9 9 7 6 4 4 4 6 8 10 9 7 7 8 8 7 7 8 8 7 7 8 8 7 7 7 4 0 -1 3 5 6 6 6 6 6 7 7 8 8 8 8 9 9 9 9 9 9 9 9 8 8 8 8 8 8 8 8 8 7 7 7 8 8 8 8 8 8 8 8 8 7 nan
nan 7 7 7 8 8 8 8 7 7 7 8 8 8 9 10 10 9 8 8 9 9 10 9 9 8 7 7 7 8 10 9 8 7 6 5 5 5 7 8 8 8 9 9 8 7 7 8 8 7 7 8 8 7 7 7 6 3 -2 -0 2 4 5 4 5 5 6 7 7 7 8 8 9 9 10 10 10 10 10 9 9 8 8 8 8 8 8 8 8 7 7 7 8 8 8 8 8 8 8 8 7 7 nan
nan 7 7 7 8 9 9 8 7 8 8 9 9 9 9 9 9 9 9 8 9 11 11 10 9 9 8 7 6 7 8 9 9 8 7 6 6 6 8 7 8 8 10 10 8 7 8 8 7 7 8 7 7 7 7 7 7 6 3 1 1 2 3 3 4 4 5 6 6 6 7 8 9 9 10 10 10 10 9 9 9 9 9 8 8 8 8 8 8 8 8 8 8 9 9 8 8 8 8 7 7 7 nan
nan 7 7 8 8 9 9 8 8 9 9 9 10 11 10 8 7 7 7 7 7 7 7 7 7 7 7 7 6 6 6 8 9 9 7 6 6 7 8 7 7 8 9 9 8 8 8 7 7 7 8 7 7 6 7 7 7 7 5 2 2 1 0 1 2 2 4 4 5 5 6 7 8 9 9 9 9 9 9 9 9 8 8 8 8 8 8 8 8 8 8 8 8 9 9 8 8 8 7 7 7 8 nan
nan 7 8 8 8 9 8 8 9 10 9 9 9 9 8 6 5 5 5 6 6 6 5 6 7 7 7 6 6 6 7 8 8 7 6 6 7 8 7 7 8 9 9 8 8 8 8 7 7 7 7 7 6 6 6 6 7 7 6 4 2 1 -1 -1 -1 -0 2 3 3 4 4 5 6 7 8 9 9 8 8 8 8 8 8 8 8 8 8 8 8 8 8 8 9 9 9 8 8 7 7 7 8 8 nan
nan 7 8 9 9 8 8 8 10 10 9 8 8 7 6 5 5 6 6 7 7 6 5 5 7 8 9 7 6 6 8 9 8 6 5 6 7 8 7 7 8 9 8 8 8 9 8 7 6 7 7 7 7 6 6 7 7 8 7 6 5 4 3 1 -1 -2 -2 -0 2 3 3 4 5 6 7 8 8 8 7 7 7 7 7 8 8 8 8 9 9 9 9 9 9 9 8 8 8 7 7 7 8 8 nan
nan 7 8 9 9 8 7 8 9 9 8 8 8 7 6 6 6 7 8 8 7 4 4 5 5 6 8 8 7 6 8 10 9 7 5 6 7 7 7 8 8 9 7 8 9 10 8 6 6 7 7 8 7 7 7 8 8 7 7 7 7 7 6 6 4 1 -2 -3 -1 2 3 3 4 4 5 6 7 7 6 6 6 6 7 7 7 8 8 9 9 9 9 9 9 9 8 8 7 7 7 8 8 8 nan
nan 7 8 9 8 7 7 9 10 9 8 8 7 7 7 7 7 8 8 7 6 5 5 5 4 5 6 7 7 6 8 9 9 8 7 8 7 6 6 8 9 9 8 8 9 10 8 7 7 7 8 7 7 7 8 8 7 7 8 8 8 8 8 8 7 6 3 -1 -1 -0 2 3 3 3 4 5 5 6 6 5 5 5 6 6 7 7 8 8 9 9 10 10 9 9 8 7 7 7 7 8 8 8 nan
nan 8 8 8 7 7 9 11 10 7 7 7 7 7 8 8 7 7 6 6 5 5 7 7 4 4 4 6 6 5 6 8 8 8 8 8 7 6 6 8 9 9 8 9 9 9 8 8 8 7 7 7 7 8 8 7 7 7 8 8 8 8 8 8 8 7 7 5 2 -1 -0 3 3 3 3 3 4 5 5 5 5 5 5 5 6 6 7 8 9 9 10 10 10 9 8 7 7 7 8 8 8 8 nan
nan 8 8 7 7 8 11 10 7 5 6 7 7 8 8 8 7 6 5 4 3 4 8 10 8 6 4 4 6 6 6 6 7 7 8 7 7 6 8 9 9 9 9 9 9 9 8 8 7 7 6 7 8 9 8 7 7 7 7 8 8 8 8 8 8 7 8 7 6 2 1 3 3 3 2 3 3 4 4 4 4 4 4 4 5 5 6 7 8 9 10 10 10 9 8 8 7 7 8 8 8 7 nan
nan 8 8 8 8 10 11 8 6 5 7 7 7 8 8 8 8 7 6 4 4 4 7 10 12 10 7 5 6 6 7 7 7 7 7 7 7 8 9 9 9 9 9 9 9 9 8 8 8 8 7 8 9 9 7 7 7 7 7 7 8 8 8 7 8 8 8 8 7 6 4 3 4 4 3 3 3 3 4 3 3 3 3 3 3 4 4 5 7 8 9 10 10 9 9 8 8 8 8 8 8 7 nan
nan 9 8 8 8 10 10 8 6 5 6 6 7 8 8 8 8 8 7 6 5 4 5 9 12 11 9 7 7 7 7 6 6 7 7 8 8 9 9 9 9 9 9 9 8 8 8 9 9 9 10 10 9 8 7 7 7 6 7 7 8 8 7 7 8 8 8 8 8 8 6 4 4 5 5 4 3 3 3 2 2 2 2 2 3 3 3 4 5 6 8 9 10 10 9 8 8 8 8 8 8 7 nan
nan 9 9 9 9 10 9 7 5 5 6 7 7 8 8 8 8 8 7 6 5 5 5 8 11 13 11 9 8 8 7 6 6 7 8 9 9 9 9 9 8 9 10 9 8 8 8 8 9 9 10 10 9 8 8 7 7 7 7 8 8 8 8 8 8 9 9 9 9 9 8 7 5 5 6 5 4 4 3 2 1 1 1 2 2 2 2 3 4 5 6 8 9 9 9 9 9 9 9 8 7 6 nan
nan 8 9 10 10 10 8 5 4 5 6 7 8 8 7 8 7 7 7 7 8 7 6 6 9 12 14 13 11 9 8 8 7 8 8 9 9 9 9 8 8 9 10 9 9 8 8 9 9 9 9 9 9 9 8 8 8 8 8 8 8 8 8 8 9 9 10 10 10 9 9 9 8 8 7 7 6 6 4 2 2 1 1 2 2 2 2 2 3 3 4 6 7 8 9 9 9 9 9 8 7 6 nan
nan 7 8 10 10 9 7 5 4 5 7 8 8 7 7 7 6 6 7 8 10 10 8 6 6 7 11 15 13 10 9 9 8 7 7 8 8 8 9 9 8 8 9 9 8 8 9 9 9 9 9 9 9 9 8 8 8 8 8 8 8 8 8 8 9 10 11 10 9 9 8 9 9 11 10 9 8 8 6 5 4 3 3 2 2 2 2 2 2 2 3 4 6 7 8 8 9 9 9 8 7 6 nan
nan 6 8 10 9 8 7 5 5 6 7 8 8 7 6 6 6 6 6 7 8 9 8 7 5 3 3 6 9 10 9 9 8 6 6 6 6 6 7 9 9 8 7 7 8 9 9 9 9 9 9 9 9 9 8 8 8 8 9 9 9 8 8 8 8 9 10 10 9 8 8 8 9 11 10 9 9 8 8 9 9 8 6 5 3 3 3 3 2 2 2 3 4 5 6 7 8 8 8 8 7 6 nan
nan 6 9 10 9 7 6 6 6 7 8 7 7 7 6 6 7 7 7 7 7 6 6 6 6 5 3 2 4 7 9 9 9 8 6 5 4 4 4 7 7 8 7 6 7 8 9 10 9 8 8 8 9 10 10 10 9 9 9 9 9 8 8 8 8 9 9 8 7 8 8 8 8 9 9 8 8 8 8 9 9 8 8 8 7 6 5 4 3 2 2 2 3 3 4 5 6 7 8 8 7 7 nan
nan 5 8 11 9 6 6 7 7 7 7 7 8 9 9 9 9 9 10 8 7 5 5 5 6 7 7 4 3 5 7 9 9 9 8 6 4 5 5 5 6 8 8 7 6 6 8 9 8 8 8 8 9 10 11 11 11 10 9 9 8 7 7 8 8 9 9 8 7 7 8 8 8 8 9 8 9 8 8 8 8 6 7 9 10 10 9 8 6 4 2 1 2 2 3 4 5 5 6 7 7 7 nan
nan 6 8 9 9 7 7 7 6 6 7 9 11 12 12 12 12 11 9 7 5 4 6 5 6 9 8 6 5 5 6 9 9 9 7 8 8 7 6 5 6 8 10 8 7 6 6 7 7 7 7 8 8 9 10 12 11 10 9 8 8 7 7 8 8 8 8 8 8 8 8 9 9 9 9 9 9 9 9 8 8 8 7 7 9 11 13 12 9 5 2 1 1 2 2 3 4 4 5 6 6 6 nan
nan 8 8 7 8 7 8 8 5 5 7 9 10 12 12 11 9 7 5 4 2 4 5 5 7 8 8 9 8 6 6 9 9 8 9 9 10 10 8 6 5 6 9 11 8 6 6 5 6 5 7 7 8 8 9 11 10 10 9 8 7 7 7 7 8 8 8 7 7 8 9 9 9 9 8 9 9 9 9 9 9 9 9 9 9 9 8 8 7 6 4 2 2 2 2 3 3 4 5 5 6 6 nan
nan 8 7 5 6 6 9 9 7 7 6 4 6 7 8 8 5 4 5 5 3 4 4 6 7 7 8 10 9 8 8 10 10 10 9 7 7 8 8 8 6 5 7 10 9 6 3 4 6 6 5 7 7 7 8 10 9 8 8 7 7 6 6 6 7 8 8 6 7 7 8 9 8 8 7 7 8 8 9 8 8 9 9 9 8 8 7 5 4 5 6 6 5 4 4 4 4 4 4 5 6 6 nan
nan 8 6 5 5 6 8 9 8 7 5 5 5 5 6 6 6 5 5 5 4 5 7 10 10 8 8 8 8 8 8 10 10 10 9 8 5 5 7 10 10 8 8 10 8 6 2 5 7 6 3 6 7 7 7 9 8 6 7 7 7 6 6 7 8 8 7 6 6 7 8 8 7 7 6 6 7 8 8 8 8 8 8 8 8 9 8 5 5 6 10 11 11 10 9 7 6 5 5 5 5 6 nan
nan 10 6 3 4 6 8 9 8 7 6 6 7 7 8 7 6 5 5 5 5 6 10 11 10 8 8 7 8 7 7 8 9 11 12 9 7 6 7 9 10 10 9 8 8 9 7 6 6 5 2 5 7 8 7 7 7 6 7 7 8 8 8 8 9 8 7 6 7 7 7 7 7 7 6 7 7 8 8 8 8 8 8 8 9 9 7 4 4 10 14 12 12 12 13 10 9 8 7 6 6 6 nan
nan 8 5 4 6 7 9 9 7 6 6 6 8 9 10 8 6 7 7 7 7 8 8 7 7 8 8 7 7 6 7 6 7 9 12 11 10 9 7 5 6 7 10 9 10 9 8 6 8 9 6 5 8 10 7 5 6 7 7 7 8 9 9 10 9 8 7 8 7 7 7 7 7 7 7 8 8 8 7 8 9 9 9 9 8 7 5 6 10 14 13 11 9 10 11 12 12 12 10 8 7 7 nan
nan 5 6 9 9 7 8 8 7 6 6 6 8 9 9 9 9 9 9 9 8 7 4 5 6 7 8 9 8 7 7 7 8 8 9 10 11 13 12 8 6 4 7 9 10 9 8 8 10 12 10 6 7 9 6 4 5 6 6 6 7 8 9 9 8 7 7 9 9 9 9 8 7 7 7 8 8 8 9 9 10 10 11 10 10 10 10 12 13 12 10 10 9 9 9 13 15 15 13 10 10 9 nan
nan 7 8 10 9 7 5 5 6 6 5 6 8 9 9 9 10 9 9 8 6 5 6 7 6 7 9 11 10 9 8 8 8 7 6 8 10 14 16 14 11 9 9 10 10 10 10 11 10 9 8 7 8 7 7 5 6 7 7 6 7 7 8 8 8 7 7 8 9 10 10 9 8 8 8 8 8 8 10 11 11 11 12 12 12 12 12 12 12 12 12 12 12 9 10 16 17 16 15 13 11 11 nan
nan 9 10 9 9 7 3 3 6 5 6 7 7 8 9 10 9 9 9 7 6 6 8 7 7 7 8 8 9 10 10 9 6 5 5 6 6 9 11 13 14 15 14 13 12 11 9 9 10 8 8 7 9 8 8 6 8 9 9 8 7 8 9 8 8 7 7 7 8 9 10 10 9 8 8 8 8 8 10 11 11 12 12 12 13 12 12 12 13 15 15 13 12 10 13 17 18 17 14 13 12 11 nan
nan 9 9 9 10 8 5 4 6 6 7 8 7 8 10 10 8 8 9 9 9 8 7 7 8 9 7 6 7 9 11 8 5 5 6 5 4 6 8 9 10 12 14 15 14 12 11 9 9 9 9 8 8 6 6 8 8 9 8 7 8 10 11 9 7 6 7 7 7 7 9 9 9 8 8 8 9 9 9 10 10 11 11 12 11 10 9 9 10 11 11 10 11 12 13 14 14 14 13 11 11 9 nan
nan 8 9 10 9 7 7 6 6 6 8 8 7 8 9 8 7 7 8 11 12 10 7 7 8 9 8 7 7 9 9 8 6 5 7 7 5 5 7 8 8 8 9 11 13 14 14 13 10 10 9 10 10 8 6 7 8 9 7 6 8 11 12 9 7 5 6 7 7 7 8 8 8 8 8 8 9 9 8 8 9 10 10 10 9 8 8 7 6 6 6 6 5 7 9 10 9 10 10 9 8 8 nan
nan nan nan nan nan nan nan nan nan nan nan nan nan nan nan nan nan nan nan nan nan nan nan nan nan nan nan nan nan nan nan nan nan nan nan nan nan nan nan nan nan nan nan nan nan nan nan nan nan nan nan nan nan nan nan nan nan nan nan nan nan nan nan nan nan nan nan nan nan nan nan nan nan nan nan nan nan nan nan nan nan nan nan nan nan nan nan nan nan nan nan nan nan nan nan nan nan nan nan nan nan nan nan
CAPE
3 3 4 4 3 3 2 1 2 2 3 4 6 6 9 10 10 6 3 3 3 7 7 9 7 7 4 2 3 3 7 11 13 13 18 25 25 32 38 32 32 18 6 0 nan nan nan nan nan nan nan nan nan nan nan nan nan nan nan nan nan nan nan 29 92 92 94 78 104 104 157 79 131 131 130 122 122 119 169 264 264 267 183 126 115 115 50 19 8 8 28 73 208 208 303 387 387 405 237 216 216 240 256
8 8 13 16 19 19 18 4 2 2 2 4 7 7 10 10 10 4 4 6 6 8 7 7 6 6 4 3 4 4 10 13 15 15 22 34 34 55 50 33 33 13 3 nan nan nan nan nan nan nan nan nan nan nan nan nan nan nan nan nan nan nan nan 71 86 86 98 83 145 145 323 92 115 115 151 208 208 213 314 353 353 334 273 287 205 205 156 115 113 113 128 135 260 260 309 348 348 378 250 269 269 270 272
13 18 26 35 40 40 36 20 7 7 6 8 9 9 10 8 8 4 5 7 7 7 9 7 5 5 6 8 11 11 13 18 18 18 31 54 54 73 59 26 26 9 2 nan nan nan nan nan nan nan nan nan nan nan nan nan nan nan nan nan nan nan nan 69 73 73 91 81 147 147 356 111 102 102 174 258 258 302 408 362 362 268 292 364 251 251 284 286 236 236 260 224 266 266 240 248 248 313 297 301 301 355 365
13 23 32 45 47 47 45 36 26 26 17 13 13 13 14 13 13 10 9 8 8 9 9 8 10 10 15 25 30 30 32 32 36 36 45 58 58 77 48 18 18 6 1 nan nan nan nan nan nan nan nan nan nan nan nan nan nan nan nan nan nan nan 2 100 62 62 68 92 140 140 245 115 130 130 224 284 284 221 262 198 198 184 204 181 178 178 214 266 267 267 180 225 268 268 258 246 246 242 303 355 355 384 392
15 24 39 43 47 47 45 44 37 37 27 21 20 20 23 21 21 18 14 14 14 12 15 12 19 19 28 40 42 42 40 40 41 41 51 63 63 66 30 12 12 4 0 nan nan nan nan nan nan nan nan nan nan nan nan nan nan nan nan nan nan nan 14 45 38 38 57 74 127 127 148 131 141 141 195 313 313 334 352 214 214 154 152 157 117 117 136 137 136 136 145 198 284 284 318 289 289 264 286 336 336 361 389
18 27 38 42 47 47 46 45 39 39 34 27 30 30 33 35 35 33 27 26 26 21 22 23 38 38 52 63 55 55 44 45 48 48 51 55 55 55 17 7 7 3 1 nan nan nan nan nan nan nan nan nan nan nan nan nan nan nan nan nan nan nan 7 9 14 14 30 60 94 94 125 148 134 134 143 187 187 295 343 199 199 135 131 172 121 121 82 74 82 82 112 209 306 306 395 359 359 284 273 317 317 343 320
17 26 37 47 48 48 48 42 36 36 35 37 41 41 48 52 52 45 39 39 39 39 33 42 57 57 69 72 63 63 49 50 46 46 44 45 45 33 7 2 2 2 0 nan nan nan nan nan nan nan nan nan nan nan nan nan nan nan nan nan nan 14 6 2 3 3 13 36 74 74 121 141 94 94 75 67 67 77 110 90 90 121 161 203 191 191 155 131 135 135 173 276 440 440 454 358 358 269 233 251 251 282 304
19 32 46 55 56 56 52 51 44 44 48 46 54 54 63 68 68 65 60 69 69 73 65 59 72 72 77 69 61 61 47 38 29 29 29 24 24 8 1 nan nan 0 0 nan nan nan nan nan nan nan nan nan nan nan nan nan nan nan nan nan nan 1 3 0 0 0 2 13 40 40 73 81 55 55 40 34 34 33 41 44 44 79 102 142 177 177 181 183 203 203 271 363 441 441 368 287 287 223 211 228 228 248 269
28 43 60 70 79 79 68 61 60 60 65 67 72 72 88 86 86 90 98 118 118 123 113 91 92 92 67 62 49 49 44 21 18 18 18 4 4 0 nan nan nan nan nan nan nan nan nan nan nan nan nan nan nan nan nan nan nan nan nan nan nan nan 1 nan nan nan 4 12 24 24 39 33 24 24 24 17 17 14 19 39 39 54 56 82 146 146 189 222 259 259 318 303 313 313 262 218 218 176 190 207 207 218 227
49 67 90 103 117 117 96 81 80 80 96 103 101 101 110 119 119 127 137 167 167 155 125 101 68 68 46 42 33 33 25 12 12 12 1 nan nan nan nan nan nan nan nan nan nan nan nan nan nan nan nan nan nan nan nan nan nan nan nan nan nan nan nan nan 2 2 13 28 35 35 34 28 27 27 31 19 19 17 30 60 60 76 81 96 139 139 169 216 249 249 215 191 179 179 170 150 150 151 153 168 168 178 186
99 148 169 189 187 187 165 145 118 118 130 140 136 136 148 161 161 175 212 226 226 170 142 100 67 67 42 35 27 27 20 9 2 2 nan nan nan nan nan nan nan 0 0 nan nan nan nan nan nan nan nan nan nan nan nan nan nan nan nan nan nan nan nan nan 8 8 28 45 44 44 38 31 32 32 29 28 28 31 60 77 77 88 97 107 117 117 116 122 117 117 102 94 91 91 105 99 99 98 110 116 116 126 132
180 223 246 269 246 246 245 198 174 174 174 170 185 185 202 220 220 236 251 218 218 188 161 118 69 69 44 35 25 25 19 8 nan nan nan nan nan nan nan nan nan nan nan nan nan nan nan nan nan nan nan nan nan nan nan nan nan nan nan nan nan nan nan 2 12 12 44 55 50 50 44 38 34 34 26 30 30 34 67 82 82 89 92 95 87 87 78 62 56 56 41 44 40 40 46 50 50 57 55 68 68 76 82
253 278 280 304 259 259 258 233 209 209 207 205 223 223 219 259 259 300 266 236 236 184 158 103 84 84 57 38 39 39 18 1 nan nan nan nan nan nan nan nan nan nan nan nan nan nan nan nan nan nan nan nan nan nan nan nan nan nan nan nan nan nan nan 9 25 25 51 57 53 53 42 38 29 29 26 30 30 40 57 73 73 78 72 74 60 60 54 46 39 39 33 31 29 29 28 26 26 24 28 31 31 38 50
376 356 288 314 247 247 269 244 219 219 241 240 238 238 234 298 298 341 283 230 230 201 155 116 85 85 83 48 23 23 1 nan nan nan nan nan nan nan nan nan nan nan nan nan nan nan nan nan nan nan nan nan nan nan nan nan nan nan nan nan nan nan 0 18 45 45 51 49 46 46 44 42 35 35 30 33 33 44 62 68 68 69 68 55 49 49 46 44 41 41 37 37 34 34 29 25 25 23 25 25 25 29 32
359 163 129 252 278 278 302 254 228 228 226 248 248 248 293 338 338 358 275 246 246 196 151 129 96 96 81 25 nan nan nan nan nan nan nan nan nan nan nan nan nan nan nan nan nan nan nan nan nan nan nan nan nan nan nan nan nan nan nan nan nan 0 2 25 46 46 46 41 41 41 44 44 40 40 37 42 42 55 68 73 73 66 61 53 46 46 46 50 52 52 48 49 46 46 41 34 34 27 29 34 34 32 31
28 13 47 258 355 355 332 284 258 258 255 254 253 253 353 404 404 399 316 262 262 189 164 141 105 105 49 nan nan nan nan nan nan nan nan nan nan nan nan nan nan nan nan nan nan nan nan nan nan nan nan nan nan nan nan nan nan nan nan nan nan nan 2 21 40 40 44 39 37 37 41 46 43 43 51 56 56 63 72 67 67 70 66 53 45 45 44 51 56 56 55 58 55 55 47 35 35 31 34 36 36 32 29
nan nan nan 242 312 312 314 290 265 265 285 282 282 282 413 469 469 385 304 251 251 180 138 134 74 74 12 nan nan nan nan nan nan nan nan nan nan nan nan nan nan nan nan nan nan nan nan nan nan nan nan nan nan nan nan nan nan nan nan nan nan nan nan 13 29 29 36 34 33 33 40 40 46 46 57 54 54 61 65 70 70 71 65 53 45 45 36 39 41 41 45 52 51 51 42 35 35 30 31 29 29 25 26
nan nan 118 186 248 248 272 273 296 296 292 288 312 312 445 504 504 422 313 214 214 170 131 97 40 40 0 nan nan nan nan nan nan nan nan nan nan nan nan nan nan nan nan nan nan nan nan nan nan nan nan nan nan nan nan nan nan nan nan nan nan nan nan 10 20 20 29 32 34 34 38 41 50 50 53 48 48 49 52 55 55 60 54 46 39 39 31 26 21 21 25 35 37 37 37 33 33 29 27 23 23 24 23
nan 7 83 149 173 173 232 279 327 327 325 346 370 370 479 540 540 456 346 222 222 161 108 58 14 14 nan nan nan nan nan nan nan nan nan nan nan nan nan nan nan nan nan nan nan nan nan nan nan nan nan nan nan nan nan nan nan nan nan nan nan nan nan 6 20 20 26 32 34 34 38 38 37 37 44 35 35 32 35 39 39 43 40 35 34 34 24 15 10 10 12 19 24 24 27 27 27 25 25 22 22 21 23
nan nan 49 118 138 138 147 174 226 226 316 469 290 290 471 449 449 336 360 180 180 61 10 nan nan nan nan nan nan nan nan nan nan nan nan nan nan nan nan nan nan nan nan nan nan nan nan nan nan nan nan nan nan nan nan nan nan nan nan nan nan nan 1 7 18 18 21 22 19 19 17 15 16 16 17 15 15 11 10 13 13 14 15 14 15 15 14 10 7 7 3 1 1 1 5 8 8 12 15 15 15 16 18
nan nan nan 0 1 1 nan nan 4 4 55 399 nan nan nan nan nan 34 28 nan nan nan nan nan nan nan nan nan nan nan nan nan nan nan nan nan nan nan nan nan nan nan nan nan nan nan nan nan nan nan nan nan nan nan nan nan nan nan nan nan nan nan 1 6 16 16 17 16 13 13 10 8 7 7 7 5 5 3 2 3 3 5 6 4 4 4 7 5 4 4 0 nan nan nan nan 2 2 6 7 9 9 10 11
nan nan nan nan nan nan nan nan nan nan nan 210 nan nan nan nan nan nan nan nan nan nan nan nan nan nan nan nan nan nan nan nan nan nan nan nan nan nan nan nan nan nan nan nan nan nan nan nan nan nan nan nan nan nan nan nan nan nan nan nan nan nan nan 3 13 13 14 10 7 7 5 3 2 2 1 0 0 0 nan nan nan 0 0 nan nan nan nan 0 nan nan nan nan nan nan nan nan nan nan 2 2 2 3 4
nan nan nan nan nan nan nan nan nan nan nan 14 nan nan nan nan nan nan nan nan nan nan nan nan nan nan nan nan nan nan nan nan nan nan nan nan nan nan nan nan nan nan nan nan nan nan nan nan nan nan nan nan nan nan nan nan nan nan nan nan nan nan nan 4 10 10 12 7 3 3 1 1 0 0 nan nan nan nan nan nan nan nan nan nan nan nan nan nan nan nan nan nan nan nan nan nan nan nan nan nan nan 0 1
nan nan nan nan nan nan nan nan nan nan nan nan nan nan nan nan nan nan nan nan nan nan nan nan nan nan nan nan nan nan nan nan nan nan nan nan nan nan nan nan nan nan nan nan nan nan nan nan nan nan nan nan nan nan nan nan nan nan nan nan nan nan nan 3 6 6 7 3 1 1 nan nan nan nan nan nan nan nan nan nan nan nan nan nan nan nan nan nan nan nan nan nan nan nan nan nan nan nan nan nan nan nan nan
nan nan nan nan nan nan nan nan nan nan nan nan nan nan nan nan nan nan nan nan nan nan nan nan nan nan nan nan nan nan nan nan nan nan nan nan nan nan nan nan nan nan nan nan nan nan nan nan nan nan nan nan nan nan nan nan nan nan nan nan nan nan nan 1 2 2 2 1 nan nan nan nan nan nan nan nan nan nan nan nan nan nan nan nan nan nan nan nan nan nan nan nan nan nan nan nan nan nan nan nan nan nan nan
nan nan nan nan nan nan nan nan nan nan nan nan nan nan nan nan nan nan nan nan nan nan nan nan nan nan nan nan nan nan nan nan nan nan nan nan nan nan nan nan nan nan nan nan nan nan nan nan nan nan nan nan nan nan nan nan nan nan nan nan nan nan nan nan nan nan 0 nan nan nan nan nan nan nan nan nan nan nan nan nan nan nan nan nan nan nan nan nan nan nan nan nan nan nan nan nan nan nan nan nan nan nan nan
nan nan nan nan nan nan nan nan nan nan nan nan nan nan nan nan nan nan nan nan nan nan nan nan nan nan nan nan nan nan nan nan nan nan nan nan nan nan nan nan nan nan nan nan nan nan nan nan nan nan nan nan nan nan nan nan nan nan nan nan nan nan nan nan nan nan nan nan nan nan nan nan nan nan nan nan nan nan nan nan nan nan nan nan nan nan nan nan nan nan nan nan nan nan nan nan nan nan nan nan nan nan nan
nan nan nan nan nan nan nan nan nan nan nan nan nan nan nan nan nan nan nan nan nan nan nan nan nan nan nan nan nan nan nan nan nan nan nan nan nan nan nan nan nan nan nan nan nan nan nan nan nan nan nan nan nan nan nan nan nan nan nan nan nan nan nan nan nan nan nan nan nan nan nan nan nan nan nan nan nan nan nan nan nan nan nan nan nan nan nan nan nan nan nan nan nan nan nan nan nan nan nan nan nan nan nan
nan nan nan nan nan nan nan nan nan nan nan nan nan nan nan nan nan nan nan nan nan nan nan nan nan nan nan nan nan nan nan nan nan nan nan nan nan nan nan nan nan nan nan nan nan nan nan nan nan nan nan nan nan nan nan nan nan nan nan nan nan nan nan nan nan nan nan nan nan nan nan nan nan nan nan nan nan nan nan nan nan nan nan nan nan nan nan nan nan nan nan nan nan nan nan nan nan nan nan nan nan nan nan
nan nan nan nan nan nan nan nan nan nan nan nan nan nan nan nan nan nan nan nan nan nan nan nan nan nan nan nan nan nan nan nan nan nan nan nan nan nan nan nan nan nan nan nan nan nan nan nan nan nan nan nan nan nan nan nan nan nan nan nan nan nan nan nan nan nan nan nan nan nan nan nan nan nan nan nan nan nan nan nan nan nan nan nan nan nan nan nan nan nan nan nan nan nan nan nan nan nan nan nan nan nan nan
nan nan nan nan nan nan nan nan nan nan nan nan nan nan nan nan nan nan nan nan nan nan nan nan nan nan nan nan nan nan nan nan nan nan nan nan nan nan nan nan nan nan nan nan nan nan nan nan nan nan nan nan nan nan nan nan nan nan nan nan nan nan nan nan nan nan nan nan nan nan nan nan nan nan nan nan nan nan nan nan nan nan nan nan nan nan nan nan nan nan nan nan nan nan nan nan nan nan nan nan nan nan nan
nan nan nan nan nan nan nan nan nan nan nan nan nan nan nan nan nan nan nan nan nan nan nan nan nan nan nan nan nan nan nan nan nan nan nan nan nan nan nan nan nan nan nan nan nan nan nan nan nan nan nan nan nan nan nan nan nan nan nan nan nan nan nan nan nan nan nan nan nan nan nan nan nan nan nan nan nan nan nan nan nan nan nan nan nan nan nan nan nan nan nan nan nan nan nan nan nan nan nan nan nan nan nan
nan nan nan nan nan nan nan nan nan nan nan nan nan nan nan nan nan nan nan nan nan nan nan nan nan nan nan nan nan nan nan nan nan nan nan nan nan nan nan nan nan nan nan nan nan nan nan nan nan nan nan nan nan nan nan nan nan nan nan nan nan nan nan nan nan nan nan nan nan nan nan nan nan nan nan nan nan nan nan nan nan nan nan nan nan nan nan nan nan nan nan nan nan nan nan nan nan nan nan nan nan nan nan
nan nan nan nan nan nan nan nan nan nan nan nan nan nan nan nan nan nan nan nan nan nan nan nan nan nan nan nan nan nan nan nan nan nan nan nan nan nan nan nan nan nan nan nan nan nan nan nan nan nan nan nan nan nan nan nan nan nan nan nan nan nan nan nan nan nan nan nan nan nan nan nan nan nan nan nan nan nan nan nan nan nan nan nan nan nan nan nan nan nan nan nan nan nan nan nan nan nan nan nan nan nan nan
nan nan nan nan nan nan nan nan nan nan nan nan nan nan nan nan nan nan nan nan nan nan nan nan nan nan nan nan nan nan nan nan nan nan nan nan nan nan nan nan nan nan nan nan nan nan nan nan nan nan nan nan nan nan nan nan nan nan nan nan nan nan nan nan nan nan nan nan nan nan nan nan nan nan nan nan nan nan nan nan nan nan nan nan nan nan nan nan nan nan nan nan nan nan nan nan nan nan nan nan nan nan nan
nan nan nan nan nan nan nan nan nan nan nan nan nan nan nan nan nan nan nan nan nan nan nan nan nan nan nan nan nan nan nan nan nan nan nan nan nan nan nan nan nan nan nan nan nan nan nan nan nan nan nan nan nan nan nan nan nan nan nan nan nan nan nan nan nan nan nan nan nan nan nan nan nan nan nan nan nan nan nan nan nan nan nan nan nan nan nan nan nan nan nan nan nan nan nan nan nan nan nan nan nan nan nan
nan nan nan nan nan nan nan nan nan nan nan nan nan nan nan nan nan nan nan nan nan nan nan nan nan nan nan nan nan nan nan nan nan nan nan nan nan nan nan nan nan nan nan nan nan nan nan nan nan nan nan nan nan nan nan nan nan nan nan nan nan nan nan nan nan nan nan nan nan nan nan nan nan nan nan nan nan nan nan nan nan nan nan nan nan nan nan nan nan nan nan nan nan nan nan nan nan nan nan nan nan nan nan
nan nan nan nan nan nan nan nan nan nan nan nan nan nan nan nan nan nan nan nan nan nan nan nan nan nan nan nan nan nan nan nan nan nan nan nan nan nan nan nan nan nan nan nan nan nan nan nan nan nan nan nan nan nan nan nan nan nan nan nan nan nan nan nan nan nan nan nan nan nan nan nan nan nan nan nan nan nan nan nan nan nan nan nan nan nan nan nan nan nan nan nan nan nan 1 1 1 0 nan nan nan nan nan
nan nan nan nan nan nan nan nan nan nan nan nan nan nan nan nan nan nan nan nan nan nan nan nan nan nan nan nan nan nan nan nan nan nan nan nan nan nan nan nan nan nan nan nan nan nan nan nan nan nan nan nan nan nan nan nan nan nan nan nan nan nan nan nan nan nan nan nan nan nan nan nan nan nan nan nan nan nan nan nan nan nan nan nan nan nan nan nan nan nan nan nan 0 0 1 2 2 1 nan nan nan nan nan
nan nan nan nan nan nan nan nan nan nan nan nan nan nan nan nan nan nan nan nan nan nan nan nan nan nan nan nan nan nan nan nan nan nan nan nan nan nan nan nan nan nan nan nan nan nan nan nan nan nan nan nan nan nan nan nan nan nan nan nan nan nan nan nan nan nan nan nan nan nan nan nan nan nan nan nan nan nan nan nan nan nan nan nan nan nan nan nan nan nan nan nan nan nan 1 2 2 1 0 0 0 nan 0
nan nan nan nan nan nan nan nan nan nan nan nan nan nan nan nan nan nan nan nan nan nan nan nan nan nan nan nan nan nan nan nan nan nan nan nan nan nan nan nan nan nan nan nan nan nan nan nan nan nan nan nan nan nan nan nan nan nan nan nan nan nan nan nan nan nan nan nan nan nan nan nan nan nan nan nan nan nan nan nan nan nan nan nan nan nan nan nan nan nan nan nan nan nan 1 1 1 1 0 0 0 0 0
nan nan nan nan nan nan nan nan nan nan nan nan nan nan nan nan nan nan nan nan nan nan nan nan nan nan nan nan nan nan nan nan nan nan nan nan nan nan nan nan nan nan nan nan nan nan nan nan nan nan nan nan nan nan nan nan nan nan nan nan nan nan nan nan nan nan nan nan nan nan nan nan nan nan nan nan nan nan nan nan nan nan nan nan nan nan nan nan nan nan nan nan nan nan 0 1 1 1 0 0 0 0 1
nan nan nan nan nan nan nan nan nan nan nan nan nan nan nan nan nan nan nan nan nan nan nan nan nan nan nan nan nan nan nan nan nan nan nan nan nan nan nan nan nan nan nan nan nan nan nan nan nan nan nan nan nan nan nan nan nan nan nan nan nan nan nan nan nan nan nan nan nan nan nan nan nan nan nan nan nan nan nan nan nan nan nan nan nan nan nan nan nan nan nan nan nan nan nan nan nan 0 0 0 0 0 0
nan nan nan nan nan nan nan nan nan nan nan nan nan nan nan nan nan nan nan nan nan nan nan nan nan nan nan nan nan nan nan nan nan nan nan nan nan nan nan nan nan nan nan nan nan nan nan nan nan nan nan nan nan nan nan nan nan nan nan nan nan nan nan nan nan nan nan nan nan nan nan nan nan nan nan nan nan nan nan nan nan nan nan nan nan nan nan nan nan nan nan nan nan nan nan nan nan nan nan 0 0 nan 0
nan nan nan nan nan nan nan nan nan nan nan nan nan nan nan nan nan nan nan nan nan nan nan nan nan nan nan nan nan nan nan nan nan nan nan nan nan nan nan nan nan nan nan nan nan nan nan nan nan nan nan nan nan nan nan nan nan nan nan nan nan nan nan nan nan nan nan nan nan nan nan nan nan nan nan nan nan nan nan nan nan nan nan nan nan nan nan nan nan nan nan nan nan nan nan nan nan nan nan nan nan nan nan
nan nan nan nan nan nan nan nan nan nan nan nan nan nan nan nan nan nan nan nan nan nan nan nan nan nan nan nan nan nan nan nan nan nan nan nan nan nan nan nan nan nan nan nan nan nan nan nan nan nan nan nan nan nan nan nan nan nan nan nan nan nan nan nan nan nan nan nan nan nan nan nan nan nan nan nan nan nan nan nan nan nan nan nan nan nan nan nan nan nan nan nan nan nan nan nan nan nan nan nan nan nan nan
nan nan nan nan nan nan nan nan nan nan nan nan nan nan nan nan nan nan nan nan nan nan nan nan nan nan nan nan nan nan nan nan nan nan nan nan nan nan nan nan nan nan nan nan nan nan nan nan nan nan nan nan nan nan nan nan nan nan nan nan nan nan nan nan nan nan nan nan nan nan nan nan nan nan nan nan nan nan nan nan nan nan nan nan nan nan nan nan nan nan nan nan nan nan nan nan nan nan nan nan nan nan nan
nan nan nan nan nan nan nan nan nan nan nan nan nan nan nan nan nan nan nan nan nan nan nan nan nan nan nan nan nan nan nan nan nan nan nan nan nan nan nan nan nan nan nan nan nan nan nan nan nan nan nan nan nan nan nan nan nan nan nan nan nan nan nan nan nan nan nan nan nan nan nan nan nan nan nan nan nan nan nan nan nan nan nan nan nan nan nan nan nan nan nan nan nan nan nan nan nan nan nan nan nan nan nan
nan nan nan nan nan nan nan nan nan nan nan nan nan nan nan nan nan nan nan nan nan nan nan nan nan nan nan nan nan nan nan nan nan nan nan nan nan nan nan nan nan nan nan nan nan nan nan nan nan nan nan nan nan nan nan nan nan nan nan nan nan nan nan nan nan nan nan nan nan nan nan nan nan nan nan nan nan nan nan nan nan nan nan nan nan nan nan nan nan nan nan nan nan nan nan nan nan nan nan nan nan nan nan
nan nan nan nan nan nan nan nan nan nan nan nan nan nan nan nan nan nan nan nan nan nan nan nan nan nan nan nan nan nan nan nan nan nan nan nan nan nan nan nan nan nan nan nan nan nan nan nan nan nan nan nan nan nan nan nan nan nan nan nan nan nan nan nan nan nan nan nan nan nan nan nan nan nan nan nan nan nan nan nan nan nan nan nan nan nan nan nan nan nan nan nan nan nan nan nan nan nan nan nan nan nan nan
nan nan nan nan nan nan nan nan nan nan nan nan nan nan nan nan nan nan nan nan nan nan nan nan nan nan nan nan nan nan nan nan nan nan nan nan nan nan nan nan nan nan nan nan nan nan nan nan nan nan nan nan nan nan nan nan nan nan nan nan nan nan nan nan nan nan nan nan nan nan nan nan nan nan nan nan nan nan nan nan nan nan nan nan nan nan nan nan nan nan nan nan nan nan nan nan nan nan nan nan nan nan nan
nan nan nan nan nan nan nan nan nan nan nan nan nan nan nan nan nan nan nan nan nan nan nan nan nan nan nan nan nan nan nan nan nan nan nan nan nan nan nan nan nan nan nan nan nan nan nan nan nan nan nan nan nan nan nan nan nan nan nan nan nan nan nan nan nan nan nan nan nan nan nan nan nan nan nan nan nan nan nan nan nan nan nan nan nan nan nan nan nan nan nan nan nan nan nan nan nan nan nan nan nan nan nan
nan nan nan nan nan nan nan nan nan nan nan nan nan nan nan nan nan nan nan nan nan nan nan nan nan nan nan nan nan nan nan nan nan nan nan nan nan nan nan nan nan nan nan nan nan nan nan nan nan nan nan nan nan nan nan nan nan nan nan nan nan nan nan nan nan nan nan nan nan nan nan nan nan nan nan nan nan nan nan nan nan nan nan nan nan nan nan nan nan nan nan nan nan nan nan nan nan nan nan nan nan nan nan
nan nan nan nan nan nan nan nan nan nan nan nan nan nan nan nan nan nan nan nan nan nan nan nan nan nan nan nan nan nan nan nan nan nan nan nan nan nan nan nan nan nan nan nan nan nan nan nan nan nan nan nan nan nan nan nan nan nan nan nan nan nan nan nan nan nan nan nan nan nan nan nan nan nan nan nan nan nan nan nan nan nan nan nan nan nan nan nan nan nan nan nan nan nan nan nan nan nan nan nan nan nan nan
nan nan nan nan nan nan nan nan nan nan nan nan nan nan nan nan nan nan nan nan nan nan nan nan nan nan nan nan nan nan nan nan nan nan nan nan nan nan nan nan nan nan nan nan nan nan nan nan nan nan nan nan nan nan nan nan nan nan nan nan nan nan nan nan nan nan nan nan nan nan nan nan nan nan nan nan nan nan nan nan nan nan nan nan nan nan nan nan nan nan nan nan nan nan nan nan nan nan nan nan nan nan nan
nan nan nan nan nan nan nan nan nan nan nan nan nan nan nan nan nan nan nan nan nan nan nan nan nan nan nan nan nan nan nan nan nan nan nan nan nan nan nan nan nan nan nan nan nan nan nan nan nan nan nan nan nan nan nan nan nan nan nan nan nan nan nan nan nan nan nan nan nan nan nan nan nan nan nan nan nan nan nan nan nan nan nan nan nan nan nan nan nan nan nan nan nan nan nan nan nan nan nan nan nan nan nan
nan nan nan nan nan nan nan nan nan nan nan nan nan nan nan nan nan nan nan nan nan nan nan nan nan nan nan nan nan nan nan nan nan nan nan nan nan nan nan nan nan nan nan nan nan nan nan nan nan nan nan nan nan nan nan nan nan nan nan nan nan nan nan nan nan nan nan nan nan nan nan nan nan nan nan nan nan nan nan nan nan nan nan nan nan nan nan nan nan nan nan nan nan nan nan nan nan nan nan nan nan nan nan
nan nan nan nan nan nan nan nan nan nan nan nan nan nan nan nan nan nan nan nan nan nan nan nan nan nan nan nan nan nan nan nan nan nan nan nan nan nan nan nan nan nan nan nan nan nan nan nan nan nan nan nan nan nan nan nan nan nan nan nan nan nan nan nan nan nan nan nan nan nan nan nan nan nan nan nan nan nan nan nan nan nan nan nan nan nan nan nan nan nan nan nan nan nan nan nan nan nan nan nan nan nan nan
nan nan nan nan nan nan nan nan nan nan nan nan nan nan nan nan nan nan nan nan nan nan nan nan nan nan nan nan nan nan nan nan nan nan nan nan nan nan nan nan nan nan nan nan nan nan nan nan nan nan nan nan nan nan nan nan nan nan nan nan nan nan nan nan nan nan nan nan nan nan nan nan nan nan nan nan nan nan nan nan nan nan nan nan nan nan nan nan nan nan nan nan nan nan nan nan nan nan nan nan nan nan nan
nan nan nan nan nan nan nan nan nan nan nan nan nan nan nan nan nan nan nan nan nan nan nan nan nan nan nan nan nan nan nan nan nan nan nan nan nan nan nan nan nan nan nan nan nan nan nan nan nan nan nan nan nan nan nan nan nan nan nan nan nan nan nan nan nan nan nan nan nan nan nan nan nan nan nan nan nan nan nan nan nan nan nan nan nan nan nan nan nan nan nan nan nan nan nan nan nan nan nan nan nan nan nan
nan nan nan nan nan nan nan nan nan nan nan nan nan nan nan nan nan nan nan nan nan nan nan nan nan nan nan nan nan nan nan nan nan nan nan nan nan nan nan nan nan nan nan nan nan nan nan nan nan nan nan nan nan nan nan nan nan nan nan nan nan nan nan nan nan nan nan nan nan nan nan nan nan nan nan nan nan nan nan nan nan nan nan nan nan nan nan nan nan nan nan nan nan nan nan nan nan nan nan nan nan nan 0